TimeIST,TemperatureF,Dew PointF,Humidity,Sea Level PressureIn,VisibilityMPH,Wind Direction,Wind SpeedMPH,Gust SpeedMPH,PrecipitationIn,Events,Conditions,WindDirDegrees,DateUTC
12:40 AM,80.6,59.0,48,29.77,1.9,SE,5.8,-,N/A,,Smoke,130,2012-10-31 19:10:00
1:10 AM,78.8,62.6,57,29.77,1.9,Calm,Calm,-,N/A,,Smoke,0,2012-10-31 19:40:00
1:40 AM,78.8,60.8,54,29.77,1.9,ENE,4.6,-,N/A,,Smoke,70,2012-10-31 20:10:00
2:10 AM,80.6,57.2,45,29.77,1.9,ENE,4.6,-,N/A,,Smoke,70,2012-10-31 20:40:00
2:30 AM,68,63,80,29.76,1,Calm,Calm,,,,Haze,,2012-10-31 21:00:00
2:40 AM,77.0,60.8,57,29.74,1.9,East,3.5,-,N/A,,Smoke,80,2012-10-31 21:10:00
3:10 AM,78.8,57.2,47,29.74,1.9,ENE,4.6,-,N/A,,Smoke,70,2012-10-31 21:40:00
3:40 AM,77.0,59.0,54,29.74,1.9,East,6.9,-,N/A,,Smoke,100,2012-10-31 22:10:00
4:10 AM,77.0,57.2,50,29.74,1.9,East,6.9,-,N/A,,Smoke,80,2012-10-31 22:40:00
4:40 AM,77.0,55.4,47,29.74,1.9,East,4.6,-,N/A,,Smoke,80,2012-10-31 23:10:00
5:10 AM,77.0,57.2,50,29.74,1.6,ESE,6.9,-,N/A,,Smoke,110,2012-10-31 23:40:00
5:30 AM,69,61,70,29.75,1,Calm,Calm,,,,Haze,,2012-11-01 00:00:00
5:40 AM,77.0,57.2,50,29.74,1.6,East,4.6,-,N/A,,Smoke,80,2012-11-01 00:10:00
6:10 AM,77.0,55.4,47,29.74,1.7,Calm,Calm,-,N/A,,Smoke,0,2012-11-01 00:40:00
6:40 AM,77.0,55.4,47,29.77,1.7,Calm,Calm,-,N/A,,Smoke,0,2012-11-01 01:10:00
7:10 AM,78.8,53.6,42,29.77,1.6,ENE,4.6,-,N/A,,Smoke,60,2012-11-01 01:40:00
7:40 AM,78.8,55.4,44,29.77,1.5,East,3.5,-,N/A,,Smoke,80,2012-11-01 02:10:00
8:10 AM,78.8,57.2,47,29.80,1.1,SSE,4.6,-,N/A,,Smoke,150,2012-11-01 02:40:00
8:30 AM,73,67,76,29.80,1,Calm,Calm,,,,Haze,,2012-11-01 03:00:00
9:10 AM,84.2,55.4,37,29.80,1.6,NE,4.6,-,N/A,,Smoke,40,2012-11-01 03:40:00
10:10 AM,84.2,53.6,35,29.80,1.9,NE,5.8,-,N/A,,Smoke,50,2012-11-01 04:40:00
10:40 AM,86.0,55.4,35,29.80,1.7,NNE,8.1,-,N/A,,Smoke,20,2012-11-01 05:10:00
11:10 AM,86.0,55.4,35,29.80,1.7,North,6.9,-,N/A,,Smoke,10,2012-11-01 05:40:00
11:30 AM,86,60,31,29.79,1,Calm,Calm,,,,Smoke,,2012-11-01 06:00:00
11:40 AM,86.0,55.4,35,29.77,1.7,North,5.8,-,N/A,,Smoke,10,2012-11-01 06:10:00
12:40 PM,89.6,53.6,29,29.74,1.9,NNW,5.8,-,N/A,,Smoke,340,2012-11-01 07:10:00
1:10 PM,89.6,55.4,31,29.74,1.9,Variable,3.5,-,N/A,,Smoke,0,2012-11-01 07:40:00
1:40 PM,91.4,55.4,29,29.71,2.2,Variable,3.5,-,N/A,,Smoke,0,2012-11-01 08:10:00
2:10 PM,91.4,53.6,28,29.71,2.2,East,3.5,-,N/A,,Smoke,80,2012-11-01 08:40:00
2:30 PM,92,58,22,29.72,1,NE,3.5,,,,Scattered Clouds,50,2012-11-01 09:00:00
2:40 PM,91.4,55.4,29,29.71,2.2,Variable,3.5,-,N/A,,Smoke,0,2012-11-01 09:10:00
3:10 PM,91.4,64.4,41,29.71,2.2,WSW,10.4,-,N/A,,Smoke,240,2012-11-01 09:40:00
3:40 PM,89.6,66.2,46,29.71,2.2,West,11.5,-,N/A,,Smoke,280,2012-11-01 10:10:00
4:10 PM,87.8,64.4,46,29.71,2.5,West,13.8,-,N/A,,Smoke,270,2012-11-01 10:40:00
4:40 PM,87.8,66.2,49,29.71,2.8,WNW,10.4,-,N/A,,Smoke,290,2012-11-01 11:10:00
5:30 PM,86,67,43,29.72,1,North,4.6,,,,Smoke,0,2012-11-01 12:00:00
5:40 PM,86.0,68.0,55,29.71,3.1,NNW,6.9,-,N/A,,Smoke,340,2012-11-01 12:10:00
6:10 PM,86.0,66.2,51,29.74,2.5,NNW,10.4,-,N/A,,Smoke,330,2012-11-01 12:40:00
6:40 PM,84.2,68.0,58,29.74,2.5,NW,8.1,-,N/A,,Smoke,320,2012-11-01 13:10:00
7:10 PM,84.2,66.2,55,29.74,2.2,NNW,8.1,-,N/A,,Smoke,340,2012-11-01 13:40:00
7:40 PM,84.2,66.2,55,29.74,2.2,North,9.2,-,N/A,,Smoke,360,2012-11-01 14:10:00
8:10 PM,84.2,66.2,55,29.74,2.2,NNE,8.1,-,N/A,,Smoke,20,2012-11-01 14:40:00
8:30 PM,83,66,47,29.75,1,North,3.5,,,,Smoke,0,2012-11-01 15:00:00
8:40 PM,84.2,64.4,51,29.77,2.2,North,8.1,-,N/A,,Smoke,360,2012-11-01 15:10:00
9:10 PM,84.2,62.6,48,29.77,2.2,Calm,Calm,-,N/A,,Smoke,0,2012-11-01 15:40:00
9:40 PM,84.2,64.4,51,29.77,2.2,SE,6.9,-,N/A,,Smoke,130,2012-11-01 16:10:00
10:10 PM,84.2,66.2,55,29.77,2.2,ESE,5.8,-,N/A,,Smoke,110,2012-11-01 16:40:00
11:10 PM,82.4,66.2,58,29.74,1.9,Calm,Calm,-,N/A,,Smoke,0,2012-11-01 17:40:00
11:30 PM,76,68,69,29.76,1,Calm,Calm,,,,Haze,,2012-11-01 18:00:00
11:40 PM,82.4,66.2,58,29.74,1.9,Calm,Calm,-,N/A,,Smoke,0,2012-11-01 18:10:00